Regional Weather Roundup
Issued by NWS

Home | Current Version | Previous Version | Text Only | Print | Product List | Glossary Off
Versions: 1 2 3 4 5 6 7 8 9 10 11 12 13 14 15 16 17 18 19 20 21 22 23 24 25 26 27 28 29 30 31 32 33 34 35 36 37 38 39 40 41 42 43 44 45 46 47 48 49 50

575
ASUS44 KLIX 172307
RWRLA
LOUISIANA WEATHER ROUNDUP
NATIONAL WEATHER SERVICE NEW ORLEANS LA
600 PM CDT FRI APR 17 2015

NOTE: "FAIR" INDICATES FEW OR NO CLOUDS BELOW 12,000 FEET WITH NO
      SIGNIFICANT WEATHER AND/OR OBSTRUCTIONS TO VISIBILITY.
      SKY/WX - SKY CONDITION AND SIGNIFICANT WEATHER.
      TMP - AIR TEMPERATURE.    DP   - DEWPOINT TEMPERATURE.
      RH  - RELATIVE HUMIDITY.  PRES - PRESSURE.
      HX  - HEAT INDEX.         WCI  - WIND CHILL INDEX.

*  THESE STATIONS ARE NOT NWS OR FAA STATIONS AND ARE NOT UNDER
   NWS QUALITY CONTROL.

LAZ040-048-061>063-065-066-069-180000-
SOUTHEAST LOUISIANA

CITY           SKY/WX    TMP DP  RH WIND       PRES   REMARKS
N.O. AUDUBON     N/A     82  73  76 MISG        N/A
N.O. INTL ARPT PTSUNNY   81  68  64 S6        29.91R
N.O. LAKEFRONT PTSUNNY   82  70  66 CALM      29.92R
SLIDELL        MOSUNNY   80  71  74 SW7       29.90R
BATON ROUGE    PTSUNNY   81  66  60 MISG      29.91R
BOOTHVILLE     MOSUNNY   78  71  79 SW6       29.93F
BELLE CHASSE   PTSUNNY   79  69  71 SW6       29.91R
BOGALUSA*        N/A     83  66  55 W3        29.91R
GALLIANO*      PTCLDY    82  69  66 MISG      29.93R
NEW ROADS*     FAIR      80  67  64 NW5       29.92R
GONZALES*      FAIR      81  70  69 SW3       29.91R
HAMMOND*       PTSUNNY   82  64  54 W3        29.92R
HOUMA*         MOSUNNY   81  70  69 W6        29.92R
PORT FOURCHON* PTCLDY    81  70  69 CALM      29.97R

$$

LAZ041-044-053-054-180000-
SOUTHWEST LOUISIANA

CITY           SKY/WX    TMP DP  RH WIND       PRES   REMARKS
LAKE CHARLES   CLOUDY    80  69  69 E6        29.89F
LAFAYETTE      CLOUDY    80  69  69 CALM      29.91R
PATTERSON      PTSUNNY   79  70  73 N3        29.93S
SALT POINT       N/A     78  69  73 SW3       29.91R
NEW IBERIA     PTSUNNY   80  69  69 S3        29.91S
CHENAULT AIRPK NOT AVBL

$$

LAZ027-028-180000-
CENTRAL LOUISIANA

CITY           SKY/WX    TMP DP  RH WIND       PRES   REMARKS
FORT POLK      CLOUDY    78  67  67 NE6       29.91R
ALEXANDRIA INT CLOUDY    78  66  66 NW5       29.91S
ALEXANDRIA     CLOUDY    80  65  59 CALM      29.92S

$$

LAZ001-002-180000-
NORTHWEST LOUISIANA

CITY           SKY/WX    TMP DP  RH WIND       PRES   REMARKS
SHREVEPORT     CLOUDY    78  64  61 SW5       29.92S
BARKSDALE AFB  PTSUNNY   79  64  60 E3        29.91F
DTN SHREVEPORT PTSUNNY   78  62  57 NE5       29.91F

$$

LAZ014-016-180000-
NORTHEAST LOUISIANA

CITY           SKY/WX    TMP DP  RH WIND       PRES   REMARKS
MONROE         MOSUNNY   79  66  64 NE10      29.93S
TALLULAH       PTSUNNY   76  63  64 N7        29.92F

$$




USA.gov is the U.S. government's official web portal to all federal, state and local government web resources and services.